OPS 4682 DEB, 38416

Orbit data source: Space-Track

OPS 4682 DEB, 38416 is space debris in LEO originally from a launch on Sat, 03 Apr 1965 UTC launched from the Air Force Western Test Range (AFWTR). Debris objects in space refer to the collection of defunct objects orbiting the Earth. Examples of debris include non-operational satellites, rocket bodies, and fragments generated from explosions, collisions, or faulty payload assembly.

Loading next visibility...
Identifier
38416, 1965-027DV
Orbit
LEO
Country
Flag of USUS
Related business
Manufacturer
Unknown
Mission
Spacecraft
Bus & Motor
Unknown
Mass
Unknown
Launch date (UTC)
1965-04-03 (61 years ago)
Launch vehicle
Unknown
Launch site
Air Force Western Test Range (AFWTR)
Object type
Payload
Rocket body
Debris
Shape & HBR
Unknown shape, 0.1 m
Radar Cross Section
Medium (>0.1 m² and <1 m²)

Expand to show TLE details & history
Last TLE update: 1 week ago

TLE from 1 week ago
0 OPS 4682 DEB
1 38416U 65027DV  26228.36780505  .00000078  00000-0  24933-3 0  9995
2 38416  90.2497  10.9986 0031583 342.9365  17.0690 12.95867674642516
Epoch: 2026-08-16T08:49Z
TLE epoch observation values (Epoch: 2026-08-16T08:49:38.356Z)
Latitude
-0.00003°
Longitude
-86.17655°
Altitude
1,258.084 km
Speed
7.237 km/s
True Right ascension
00h 43m 59s
True Declination
0° 00' 00"
Sunlit
Object was in full shadow at epoch
Visualization orbit readout
Latitude
Unknown
Longitude
Unknown
Altitude
Unknown
Speed
Unknown
Apparent Right ascension
Unknown
Apparent Declination
Unknown
Sunlit
N/A
Visualization observer readout
Local Sidereal Time
19:32:19
Azimuth
Unknown
Elevation
Unknown
Doppler factor
Unknown
Orbital elements
Apogee altitude
1,299.626 km
Perigee altitude
1,251.281 km
Semi-major axis
7,653.59 km
Eccentricity
0.00316
Inclination
90.2497°
RAAN
10.9986°
Arg. of periapsis
342.9365°
True anomaly
17.17563°
Mean anomaly
17.069°
Eccentric anomaly
17.12228°
Mean motion
3.24149 °/min
Orbital period
111.06 mins
BSTAR
0.00024933
Loading maneuver chart data...
Computing Atmospheric mass density...
Loading historical data...
Loading historical data...
Loading historical data...
Loading historical data...
Loading historical data...
Loading historical data...
Loading historical data...

Documentation

Showing up to 5 results
|